{"data":{"norad_id":67386,"epoch":"2026-09-20T12:40:48.957024Z","epoch_age_seconds":97760,"freshness":"FRESH","line1":"1 67386U 26004Z   26263.52834441  .00000940  00000+0  10549-3 0  9996","line2":"2 67386  97.8064 260.8977 0003250 142.4360 217.7085 14.89125021 37480","mean_motion":14.89125021,"eccentricity":0.000325,"inclination_deg":97.8064,"raan_deg":260.8977,"arg_perigee_deg":142.436,"mean_anomaly_deg":217.7085,"bstar":0.00010549,"rev_number":3748,"period_min":96.701081486965,"perigee_km":598.39994989567,"apogee_km":602.93617318567,"semimajor_km":6978.8050615407,"source":"CELESTRAK","updated_at":"2026-09-21T09:00:16.597426Z"}}